| time (UTC) | temp F | wind direction | speed MPH | gust MPH | rain 1hr in | rain 24hr in | rain mn in | humidity % | barometer mb |
| 20260505230050 | 52 | 0 | 0.0 | 0.0 | 0.00 | 0.00 | 0.00 | 74 | 1010.1 |
| 20260505224550 | 52 | 0 | 0.0 | 0.0 | 0.00 | 0.00 | 0.00 | 73 | 1009.8 |
| 20260505223051 | 52 | 0 | 0.0 | 0.0 | 0.00 | 0.00 | 0.00 | 72 | 1009.7 |
| 20260505221549 | 53 | 0 | 0.0 | 0.0 | 0.00 | 0.00 | 0.00 | 72 | 1009.7 |
| 20260505214601 | 54 | 0 | 0.0 | 0.0 | 0.00 | 0.00 | 0.00 | 70 | 1009.2 |
| 20260505213054 | 54 | 0 | 0.0 | 0.0 | 0.00 | 0.00 | 0.00 | 71 | 1008.5 |
| 20260505211554 | 54 | 0 | 0.0 | 0.0 | 0.00 | 0.00 | 0.00 | 71 | 1008.8 |
| 20260505210053 | 54 | 0 | 0.0 | 0.0 | 0.00 | 0.00 | 0.00 | 72 | 1008.5 |
| 20260505204548 | 54 | 0 | 0.0 | 0.0 | 0.00 | 0.00 | 0.00 | 73 | 1008.7 |
| 20260505203050 | 54 | 0 | 0.0 | 0.0 | 0.00 | 0.00 | 0.00 | 73 | 1009.6 |
| 20260505201553 | 54 | 0 | 0.0 | 0.0 | 0.00 | 0.00 | 0.00 | 72 | 1008.5 |
| 20260505200057 | 54 | 0 | 0.0 | 0.0 | 0.00 | 0.00 | 0.00 | 74 | 1008.2 |
| 20260505194552 | 54 | 0 | 0.0 | 0.0 | 0.00 | 0.00 | 0.00 | 74 | 1008.3 |
| 20260505193052 | 54 | 0 | 0.0 | 0.0 | 0.00 | 0.00 | 0.00 | 76 | 1008.2 |
| 20260505191600 | 54 | 0 | 0.0 | 0.0 | 0.00 | 0.00 | 0.00 | 77 | 1008.2 |
| 20260505190057 | 54 | 0 | 0.0 | 0.0 | 0.00 | 0.00 | 0.00 | 79 | 1008.2 |
| 20260505184553 | 55 | 0 | 0.0 | 0.0 | 0.00 | 0.00 | 0.00 | 78 | 1008.1 |
| 20260505183052 | 56 | 0 | 0.0 | 0.0 | 0.00 | 0.00 | 0.00 | 77 | 1007.9 |
| 20260505181551 | 56 | 0 | 0.0 | 0.0 | 0.00 | 0.00 | 0.00 | 76 | 1007.8 |
| 20260505180059 | 57 | 0 | 0.0 | 0.0 | 0.00 | 0.00 | 0.00 | 76 | 1007.5 |
| 20260505174609 | 57 | 0 | 0.0 | 0.0 | 0.00 | 0.00 | 0.00 | 77 | 1007.2 |
| 20260505173054 | 56 | 0 | 0.0 | 0.0 | 0.00 | 0.00 | 0.00 | 78 | 1007.2 |
| 20260505171549 | 56 | 0 | 0.0 | 0.0 | 0.00 | 0.00 | 0.00 | 79 | 1007.0 |
| 20260505170131 | 56 | 0 | 0.0 | 0.0 | 0.00 | 0.00 | 0.00 | 79 | 1006.6 |
| 20260505164552 | 56 | 0 | 0.0 | 0.0 | 0.00 | 0.00 | 0.00 | 80 | 1006.5 |
| 20260505163050 | 56 | 0 | 0.0 | 0.0 | 0.00 | 0.00 | 0.00 | 80 | 1005.9 |
| 20260505161557 | 56 | 0 | 0.0 | 0.0 | 0.00 | 0.00 | 0.00 | 81 | 1005.5 |
| 20260505153058 | 59 | 0 | 0.0 | 0.0 | 0.00 | 0.00 | 0.00 | 81 | 1004.2 |
| 20260505151554 | 60 | 0 | 0.0 | 0.0 | 0.00 | 0.00 | 0.00 | 80 | 1003.7 |
| 20260505124553 | 68 | 0 | 0.0 | 0.0 | 0.00 | 0.00 | 0.00 | 81 | 1001.1 |
| 20260505123109 | 68 | 0 | 0.0 | 0.0 | 0.00 | 0.00 | 0.00 | 80 | 1001.0 |
| 20260505121552 | 68 | 0 | 0.0 | 0.0 | 0.00 | 0.00 | 0.00 | 80 | 1000.5 |
| 20260505120052 | 68 | 0 | 0.0 | 0.0 | 0.00 | 0.00 | 0.00 | 79 | 1000.4 |
| 20260505114612 | 68 | 0 | 0.0 | 0.0 | 0.00 | 0.00 | 0.00 | 78 | 1000.2 |
| 20260505113053 | 69 | 0 | 0.0 | 0.0 | 0.00 | 0.00 | 0.00 | 77 | 999.2 |
| 20260505111605 | 69 | 0 | 0.0 | 0.0 | 0.00 | 0.00 | 0.00 | 76 | 998.8 |
| 20260505101547 | 71 | 0 | 0.0 | 0.0 | 0.00 | 0.00 | 0.00 | 74 | 998.1 |
| 20260505100051 | 71 | 0 | 0.0 | 0.0 | 0.00 | 0.00 | 0.00 | 74 | 998.1 |
| 20260505094548 | 71 | 0 | 0.0 | 0.0 | 0.00 | 0.00 | 0.00 | 73 | 998.0 |
| 20260505093045 | 72 | 0 | 0.0 | 0.0 | 0.00 | 0.00 | 0.00 | 73 | 998.1 |
| 20260505091547 | 71 | 0 | 0.0 | 0.0 | 0.00 | 0.00 | 0.00 | 73 | 997.9 |
| 20260505090055 | 71 | 0 | 0.0 | 0.0 | 0.00 | 0.00 | 0.00 | 73 | 998.1 |
| 20260505084549 | 71 | 0 | 0.0 | 0.0 | 0.00 | 0.00 | 0.00 | 73 | 998.3 |
| 20260505083100 | 72 | 0 | 0.0 | 0.0 | 0.00 | 0.00 | 0.00 | 73 | 998.3 |
| 20260505081555 | 72 | 0 | 0.0 | 0.0 | 0.00 | 0.00 | 0.00 | 73 | 998.6 |
| 20260505080052 | 72 | 0 | 0.0 | 0.0 | 0.00 | 0.00 | 0.00 | 73 | 998.5 |
| 20260505074548 | 71 | 0 | 0.0 | 0.0 | 0.00 | 0.00 | 0.00 | 73 | 998.7 |
| 20260505073055 | 72 | 0 | 0.0 | 0.0 | 0.00 | 0.00 | 0.00 | 73 | 998.9 |
| 20260505071550 | 72 | 0 | 0.0 | 0.0 | 0.00 | 0.00 | 0.00 | 73 | 999.0 |
| 20260505070053 | 72 | 0 | 0.0 | 0.0 | 0.00 | 0.00 | 0.00 | 72 | 999.1 |
| 20260505064559 | 72 | 0 | 0.0 | 0.0 | 0.00 | 0.00 | 0.00 | 72 | 999.3 |
| 20260505063053 | 72 | 0 | 0.0 | 0.0 | 0.00 | 0.00 | 0.00 | 71 | 999.4 |
| 20260505061552 | 72 | 0 | 0.0 | 0.0 | 0.00 | 0.00 | 0.00 | 71 | 999.6 |
| 20260505060058 | 73 | 0 | 0.0 | 0.0 | 0.00 | 0.00 | 0.00 | 71 | 999.7 |
| 20260505054559 | 73 | 0 | 0.0 | 0.0 | 0.00 | 0.00 | 0.00 | 70 | 999.7 |
| 20260505053109 | 73 | 0 | 0.0 | 0.0 | 0.00 | 0.00 | 0.00 | 70 | 999.8 |
| 20260505051549 | 73 | 0 | 0.0 | 0.0 | 0.00 | 0.00 | 0.00 | 70 | 1000.2 |
| 20260505041612 | 73 | 0 | 0.0 | 0.0 | 0.00 | 0.00 | 0.00 | 69 | 1000.7 |
| 20260505040056 | 74 | 0 | 0.0 | 0.0 | 0.00 | 0.00 | 0.00 | 69 | 1000.8 |
| 20260505034558 | 74 | 0 | 0.0 | 0.0 | 0.00 | 0.00 | 0.00 | 69 | 1000.9 |
| 20260505033052 | 74 | 0 | 0.0 | 0.0 | 0.00 | 0.00 | 0.00 | 68 | 1001.0 |
| 20260505031606 | 74 | 0 | 0.0 | 0.0 | 0.00 | 0.00 | 0.00 | 67 | 1000.5 |
| 20260505030051 | 75 | 0 | 0.0 | 0.0 | 0.00 | 0.00 | 0.00 | 66 | 1000.3 |
| 20260505024550 | 75 | 0 | 0.0 | 0.0 | 0.00 | 0.00 | 0.00 | 65 | 1000.2 |
| 20260505023101 | 76 | 0 | 0.0 | 0.0 | 0.00 | 0.00 | 0.00 | 64 | 1000.2 |
| 20260505021552 | 76 | 0 | 0.0 | 0.0 | 0.00 | 0.00 | 0.00 | 62 | 1000.0 |
| 20260505020048 | 77 | 0 | 0.0 | 0.0 | 0.00 | 0.00 | 0.00 | 61 | 999.9 |
| 20260505014548 | 77 | 0 | 0.0 | 0.0 | 0.00 | 0.00 | 0.00 | 61 | 1000.0 |
| 20260505013056 | 78 | 0 | 0.0 | 0.0 | 0.00 | 0.00 | 0.00 | 59 | 1000.0 |
| 20260505011558 | 78 | 0 | 0.0 | 0.0 | 0.00 | 0.00 | 0.00 | 57 | 999.9 |
| 20260505010051 | 79 | 0 | 0.0 | 0.0 | 0.00 | 0.00 | 0.00 | 57 | 1000.3 |
| 20260505004551 | 79 | 0 | 0.0 | 0.0 | 0.00 | 0.00 | 0.00 | 56 | 1000.1 |
| 20260505003049 | 80 | 0 | 0.0 | 0.0 | 0.00 | 0.00 | 0.00 | 54 | 1000.2 |
| 20260505001553 | 81 | 0 | 0.0 | 0.0 | 0.00 | 0.00 | 0.00 | 53 | 1000.4 |
| 20260504234619 | 83 | 0 | 0.0 | 0.0 | 0.00 | 0.00 | 0.00 | 51 | 1000.8 |
| 20260504233054 | 83 | 0 | 0.0 | 0.0 | 0.00 | 0.00 | 0.00 | 51 | 1001.0 |
| 20260504231559 | 83 | 0 | 0.0 | 0.0 | 0.00 | 0.00 | 0.00 | 50 | 1001.0 |
| 20260504230057 | 84 | 0 | 0.0 | 0.0 | 0.00 | 0.00 | 0.00 | 49 | 1001.2 |